Printer-friendly version

IAU Minor Planet Center

Minor Planet Center

MPEC 2008-F52 : 2008 FH5

The following Minor Planet Electronic Circular may be linked-to from your own Web pages, but must not otherwise be redistributed electronically.


Read MPEC 2008-F51 Read MPEC 2008-F53


M.P.E.C. 2008-F52                                Issued 2008 Mar. 29, 03:34 UT

     The Minor Planet Electronic Circulars contain information on unusual
         minor planets and routine data on comets.  They are published
   on behalf of Commission 20 of the International Astronomical Union by the
          Minor Planet Center, Smithsonian Astrophysical Observatory,
                          Cambridge, MA 02138, U.S.A.

             Prepared using the Tamkin Foundation Computer Network

                              MPC@CFA.HARVARD.EDU
          URL http://www.cfa.harvard.edu/iau/mpc.html  ISSN 1523-6714

                                   2008 FH5

Observations:
     K08F05H* C2008 03 28.31551 12 53 27.42 -02 19 22.0          20.3 V EF052G96
     K08F05H  C2008 03 28.32219 12 53 34.54 -02 19 48.4          20.2 V EF052G96
     K08F05H  C2008 03 28.32883 12 53 41.56 -02 20 15.0          20.5 V EF052G96
     K08F05H  C2008 03 28.33549 12 53 48.66 -02 20 41.7          20.1 V EF052G96
     K08F05H  C2008 03 28.34559 12 53 59.46 -02 21 22.4          20.3 V EF052G96
     K08F05H  C2008 03 28.34638 12 54 00.32 -02 21 26.1          20.6 V EF052G96
     K08F05H  C2008 03 28.34719 12 54 01.15 -02 21 29.2          20.1 V EF052G96
     K08F05H  C2008 03 28.34797 12 54 02.01 -02 21 32.4          20.5 V EF052G96
     K08F05H  C2008 03 28.43721 12 55 39.38 -02 27 34.4          20.9 V EF052G96
     K08F05H  C2008 03 28.44296 12 55 45.81 -02 27 58.1          20.0 V EF052G96
     K08F05H  C2008 03 28.44880 12 55 52.38 -02 28 22.0          20.4 V EF052G96
     K08F05H  C2008 03 28.45452 12 55 58.78 -02 28 46.5                 EF052G96
     K08F05H  C2008 03 29.04641 13 08 54.19 -03 14 12.2                 EF052J95
     K08F05H  C2008 03 29.05303 13 09 03.03 -03 14 44.9                 EF052J95
     K08F05H  C2008 03 29.05994 13 09 12.39 -03 15 18.5          20.3 R EF052J95

Observer details:
G96 Mt. Lemmon Survey.  Observer R. A. Kowalski.  Measurers E. C. Beshore,
    A. Boattini, G. J. Garradd, A. R. Gibbs, A. D. Grauer, R. E. Hill,
    R. A. Kowalski, S. M. Larson, R. H. McNaught.  1.5-m reflector + CCD.
J95 Great Shefford.  Observer P. Birtwhistle.  0.40-m f/6.0 Schmidt-Cassegrain
    + CCD.

Orbital elements:
2008 FH5                                                 Earth MOID = 0.0039 AU
Epoch 2008 May 14.0 TT = JDT 2454600.5                  MPC
M   4.36028              (2000.0)            P               Q
n   0.35698121     Peri.   51.93463     -0.62713374     +0.77891158
a   1.9680637      Node   179.22634     -0.71867342     -0.57854601
e   0.5226126      Incl.    0.74986     -0.30035278     -0.24203568
P   2.76           H   27.0           G   0.15           U   8
Residuals in seconds of arc
080328 G96  0.1-  0.3-    080328 G96  0.2+  0.3-    080328 G96  0.3+  0.3+
080328 G96  0.4+  0.1+    080328 G96  0.3-  0.2-    080328 G96  0.2-  0.7-
080328 G96  0.2-  0.2+    080328 G96  0.1+  0.2-    080329 J95  0.3+  0.3+
080328 G96  0.2-  0.2+    080328 G96  0.0   0.4+    080329 J95  0.5-  0.2-
080328 G96  0.0   0.2+    080328 G96  0.0   0.3+    080329 J95  0.2+  0.1-

Ephemeris:
2008 FH5                 a,e,i = 1.97, 0.52, 1                   q = 0.9395
Date    TT    R. A. (2000) Decl.     Delta      r     Elong.  Phase     V
2008 03 25    12 10.81   +00 12.7    0.0557   1.053   177.5     2.4    21.1
2008 03 27    12 32.32   -01 03.1    0.0444   1.042   177.4     2.5    20.6
2008 03 29    13 07.82   -03 06.9    0.0338   1.032   170.9     8.8    20.3
2008 03 31    14 11.82   -06 35.9    0.0249   1.022   156.7    22.7    20.1
2008 04 02    16 05.94   -11 19.1    0.0198   1.013   130.2    49.0    20.3
2008 04 04    18 24.23   -13 17.9    0.0213   1.004    98.4    80.4    21.5

Sonia Keys                   (C) Copyright 2008 MPC           M.P.E.C. 2008-F52

Read MPEC 2008-F51 Read MPEC 2008-F53


Our Web policy. Index to the CBAT/MPC/ICQ pages.


Valid HTML 4.01!